Location: Katwijk
(52.2000°N, 4.4170°E)
Time: 20:35:33
(UTC+02:00)

ISS - Visible Passes

Search period start: 24 July 2016 00:00
Search period end: 03 August 2016 00:00
Orbit: 401 x 404 km, 51.6° (Epoch: 24 July)

Date Brightness Start Highest point End Pass type
(mag) Time Alt. Az. Time Alt. Az. Time Alt. Az.
24 Jul -2.5 01:38:14 36° ESE 01:38:14 36° ESE 01:40:27 10° E visible
24 Jul -3.5 03:10:49 14° W 03:13:36 83° S 03:16:53 10° E visible
24 Jul -3.1 04:46:46 10° W 04:49:56 48° SSW 04:53:06 10° SE visible
25 Jul -1.1 00:46:52 14° E 00:46:52 14° E 00:47:29 10° E visible
25 Jul -3.5 02:19:26 35° WSW 02:20:41 80° S 02:23:57 10° E visible
25 Jul -3.4 03:53:50 10° W 03:57:04 63° SSW 04:00:18 10° ESE visible
25 Jul-0.323:55:17E23:55:17E23:46:44SWvisible
26 Jul -3.5 01:27:50 70° SSE 01:27:50 70° SSE 01:31:02 10° E visible
26 Jul -3.5 03:00:54 10° W 03:04:11 76° S 03:07:26 10° ESE visible
26 Jul -2.6 04:37:26 10° W 04:40:22 31° SSW 04:43:17 10° SE visible
26 Jul -1.8 22:56:41 10° S 22:58:55 17° SE 23:01:10 10° E visible
27 Jul -3.4 00:31:41 10° WSW 00:34:53 56° SSE 00:38:06 10° E visible
27 Jul -3.5 02:07:59 10° W 02:11:15 83° S 02:14:31 10° E visible
27 Jul -3.1 03:44:25 10° W 03:47:33 43° SSW 03:50:41 10° SE visible
27 Jul -3.0 23:38:57 10° SW 23:42:02 41° SSE 23:45:08 10° E visible
28 Jul -3.5 01:15:04 10° W 01:18:19 82° S 01:21:36 10° E visible
28 Jul -3.1 02:51:28 10° W 02:55:15 49° SSE 02:57:54 10° ESE visible
28 Jul -1.9 04:28:36 11° WSW 04:30:42 19° SW 04:33:05 10° SSE visible
28 Jul -2.4 22:46:22 10° SSW 22:49:14 28° SSE 22:52:06 10° E visible
29 Jul -3.5 00:22:08 10° WSW 00:25:24 74° S 00:27:58 15° E visible
29 Jul -2.3 01:58:32 10° W 02:00:32 34° W 02:00:32 34° W visible
29 Jul -3.4 23:29:16 10° WSW 23:32:29 60° SSE 23:35:43 10° E visible
30 Jul -3.5 01:05:36 10° W 01:08:52 82° S 01:09:03 76° SE visible
30 Jul -3.0 22:36:29 10° SW 22:39:37 45° SSE 22:42:45 10° E visible
31 Jul -3.5 00:12:39 10° W 00:15:56 83° S 00:17:40 25° E visible
31 Jul -1.4 01:49:05 10° W 01:50:15 20° W 01:50:15 20° W visible
31 Jul -3.5 23:19:43 10° WSW 23:23:00 77° S 23:26:15 10° E visible
01 Aug -3.2 00:56:07 10° W 00:58:56 58° WSW 00:58:56 58° WSW visible
01 Aug -3.3 22:26:50 10° WSW 22:30:04 64° SSE 22:33:19 10° E visible
02 Aug -3.5 00:03:10 10° W 00:06:27 80° S 00:07:37 36° ESE visible
02 Aug -0.9 01:39:39 10° W 01:40:13 14° W 01:40:13 14° W visible
02 Aug -3.4 23:10:14 10° W 23:13:30 83° S 23:16:20 13° E visible
